Location: Antioch
(38.0049°N, 121.8058°W)
Time: 00:09:15
(UTC+00:00)

ISS - Pass Details

Date: 11 February 2026
Orbit: 416 x 426 km, 51.6° (Epoch: 9 March)

Event Time Altitude Azimuth Distance (km) Brightness Sun altitude
Exits shadow 13:43:08 - 201° (SSW) 2,166 -0.3 -16.0°
Reaches altitude 10° 13:44:59 10° 190° (S) 1,484 -1.0 -15.6°
Maximum altitude 13:47:47 25° 132° (SE) 874 -1.5 -15.1°
Drops below altitude 10° 13:50:36 10° 75° (ENE) 1,489 0.2 -14.5°
Sets 13:52:55 0° 62° (ENE) 2,354 1.0 -14.1°
